Location: Horta
(41.4333°N, 2.1667°E)
Time: 13:56:37
(UTC+00:00)

Daily predictions for brighter satellites

Satellite Brightness Start Highest point End
(mag) Time Altitude Azimuth Time Altitude Azimuth Time Altitude Azimuth
FALCON 9 R/B 4.3 18:03:04 10° SW 18:08:47 36° SSE 18:33:13 10° E
Cosmos 2333 Rocket 4.4 18:32:41 10° WSW 18:37:37 30° NW 18:42:35 10° N
STARLINK-1230 3.7 18:36:30 10° SW 18:40:35 80° NW 18:44:39 10° NE
STARLINK-1096 4.5 18:39:33 10° NW 18:43:18 35° NNE 18:47:02 10° E
STARLINK-1233 4.4 18:40:26 10° W 18:43:22 36° NNW 18:46:19 10° NE
STARLINK-1212 4.4 18:40:55 10° W 18:43:50 36° NNW 18:46:46 10° NE
STARLINK-1105 4.4 18:41:21 10° W 18:44:16 35° NNW 18:47:13 10° NE
STARLINK-1206 4.4 18:41:51 10° W 18:44:45 35° NNW 18:47:40 10° NE
FREGAT/IRIS 4.1 18:42:59 10° ESE 18:44:51 17° ENE 18:46:44 10° NNE
STARLINK-1247 4.4 18:42:17 10° W 18:45:11 35° NNW 18:48:06 10° NE
STARLINK-1243 3.8 18:41:20 10° WSW 18:45:23 74° NW 18:49:28 10° NE
STARLINK-1227 4.5 18:42:43 10° W 18:45:38 35° NNW 18:48:33 10° NE
STARLINK-1218 4.5 18:43:13 10° W 18:46:06 34° NNW 18:49:00 10° NE
Abrixas rocket 3.2 18:43:49 10° SSW 18:46:17 25° SE 18:48:48 10° E
STARLINK-1226 4.5 18:43:40 10° W 18:46:32 34° NNW 18:49:27 10° NE
STARLINK-1079 4.4 18:44:34 10° NW 18:48:22 38° NNE 18:52:09 10° E
Cosmos 1953 4.3 18:48:41 10° E 18:49:02 10° E 18:49:25 10° ENE
STARLINK-1236 3.9 18:46:07 10° WSW 18:50:11 68° NW 18:54:15 10° NE
Cosmos 304 Rocket 3.9 18:46:38 10° N 18:51:21 55° ENE 18:56:02 10° SE
Cosmos 1709 Rocket 4.4 18:46:21 10° N 18:52:09 40° ENE 18:57:52 10° SE
Cosmos 1269 Rocket 4.1 18:47:06 10° S 18:52:15 57° ESE 18:57:27 10° NNE
STARLINK-1116 4.3 18:48:58 10° NW 18:52:48 40° NNE 18:56:26 11° E
SeaSat 1 4.1 18:48:17 10° N 18:52:49 38° NW 18:57:21 10° WSW
SL-08 ROCKET BODY 4.4 18:50:56 10° N 18:57:04 72° E 19:03:03 10° SSE
YAOGAN 1 3.9 18:53:52 10° S 18:57:59 44° W 19:02:09 10° NNW
STARLINK-1118 2.7 18:56:52 10° WNW 18:59:00 48° SW 19:00:59 11° SE
ISS -1.3 18:57:26 10° NNW 18:59:33 15° N 19:01:38 10° NE
STARLINK-1269 4.2 18:56:01 10° WSW 19:00:01 57° NW 19:04:03 10° NE
Cosmos 1455 Rocket 3.0 18:55:56 10° S 19:00:13 70° E 19:04:34 10° NNE
STARLINK-1094 4.1 18:58:12 10° NW 19:02:07 46° NNE 19:05:21 14° ESE
Cosmos 371 Rocket 4.2 18:58:11 10° NNW 19:02:52 51° WSW 19:07:31 10° S
Cosmos 2297 4.0 18:57:28 10° NNW 19:02:58 49° ENE 19:08:27 10° SE
S3M 4.2 18:57:38 10° S 19:04:00 83° W 19:10:27 10° N
Cosmos 2237 Rocket 3.3 18:59:22 10° SW 19:04:48 49° WNW 19:10:16 10° NNE
STARLINK-1200 4.4 19:00:52 10° WSW 19:04:51 53° NNW 19:08:52 10° NE
STARLINK-1117 4.0 19:03:02 10° NW 19:06:59 50° NNE 19:10:00 16° ESE
Cosmos 1386 Rocket 4.4 19:02:03 10° N 19:08:08 89° E 19:14:08 10° S
Cosmos 1805 4.2 19:04:40 10° SSW 19:08:29 51° W 19:12:18 10° N
STARLINK-1192 4.5 19:05:40 10° WSW 19:09:37 49° NNW 19:13:36 10° NE
Cosmos 1892 Rocket 3.8 19:05:42 10° N 19:10:11 76° W 19:14:39 10° S
CZ-2C R/B 3.8 19:07:02 10° NE 19:10:48 20° E 19:14:07 12° SE
Cosmos 1626 Rocket 4.2 19:06:53 10° N 19:10:57 35° ENE 19:14:43 11° SE
STARLINK-1078 3.9 19:07:27 10° NW 19:11:26 54° NNE 19:14:17 18° ESE
BREEZE-M DEB (TANK) 3.3 19:01:41 10° WNW 19:13:05 73° SW 19:15:44 15° SE
Cosmos 2278 Rocket 3.6 19:08:39 10° NW 19:13:54 40° WSW 19:19:09 10° S
ARGOS 3.3 19:09:12 10° SSE 19:14:27 55° ENE 19:19:43 10° N
Meteor 2-5 Rocket 4.1 19:09:00 10° NNW 19:14:37 67° W 19:20:06 10° S
STARLINK-1108 3.8 19:12:18 10° NW 19:16:19 58° NE 19:18:58 20° ESE
Cosmos 1602 Rocket 4.3 19:14:52 10° N 19:18:57 34° ENE 19:21:45 17° SE
STARLINK-1071 3.7 19:16:57 10° NW 19:20:59 63° NE 19:23:26 22° ESE
USA 186 1.8 19:18:20 10° SSE 19:21:45 68° ENE 19:25:08 10° N
Okean 1-7 Rocket 4.0 19:17:50 10° NNW 19:22:12 65° W 19:26:32 10° S
MOS 1 Rocket 4.4 19:20:43 10° NE 19:25:17 29° E 19:29:46 11° SSE
STARLINK-1110 3.6 19:21:24 10° NW 19:25:27 68° NE 19:27:43 25° ESE
Meteor 1-24 Rocket 3.9 19:20:23 10° NNW 19:25:52 73° W 19:31:11 10° S
CZ-2C R/B 2.9 19:21:47 10° SSE 19:26:52 76° ENE 19:31:45 10° N
STARLINK-1124 3.6 19:22:46 10° NW 19:26:55 71° NE 19:29:13 25° ESE
Cosmos 1544 Rocket 3.7 19:23:26 10° S 19:27:48 78° W 19:32:15 10° N
Cosmos 1470 2.6 19:26:02 10° S 19:29:52 67° E 19:33:44 10° NNE
Cosmos 1331 Rocket 4.4 19:26:17 10° NNW 19:31:24 63° WSW 19:36:28 10° S
SPOT 3 Rocket 3.8 19:29:48 17° SE 19:33:38 49° ENE 19:38:40 10° N
STARLINK-1122 3.5 19:30:49 10° NW 19:34:54 81° NE 19:36:48 30° ESE
MOS 1 4.3 19:29:51 10° SSE 19:35:29 89° ENE 19:41:11 10° NNW
SJ-6B 2.8 19:36:17 14° SSE 19:39:48 84° ENE 19:43:56 10° N
STARLINK-1126 3.5 19:35:48 10° NW 19:39:53 88° NE 19:41:36 34° SE
Cosmos 2369 Rocket 3.1 19:36:09 10° N 19:41:15 32° ENE 19:43:14 26° E
Cosmos 1726 3.6 19:42:57 22° ENE 19:42:57 22° ENE 19:44:53 10° NNE
H-2A R/B 3.9 19:33:38 10° W 19:42:37 20° SW 19:45:59 10° S
Ariane Rocket 3.6 19:37:50 10° S 19:42:49 56° W 19:47:49 10° NNW
Cosmos 1758 3.3 19:39:44 10° S 19:43:49 90° WNW 19:47:56 10° N
STARLINK-1082 3.5 19:40:17 10° NW 19:44:22 86° SW 19:45:55 37° SE
Aureole 2 Rocket 3.9 19:43:33 10° N 19:45:56 23° NE 19:45:56 23° NE
NOSS 3-3 (A) 4.1 19:41:07 10° S 19:46:30 43° ESE 19:52:26 10° NE
NOSS 3-3 (C) 4.1 19:41:15 10° S 19:46:37 43° ESE 19:52:32 10° NE
Cosmos 1758 Rocket 4.3 19:43:53 10° NNE 19:47:47 31° ENE 19:47:54 31° ENE
STARLINK-1100 3.5 19:45:12 10° NW 19:49:17 79° SW 19:50:38 40° SE
CZ-2C R/B 3.7 19:46:14 10° NNE 19:51:01 81° ESE 19:55:41 10° S
STARLINK-1083 3.6 19:49:57 10° NW 19:54:02 72° SW 19:55:12 44° SSE
Cosmos 2184 Rocket 4.2 19:50:58 10° N 19:57:06 49° ENE 19:59:37 32° SE
IRIDIUM 106 4.2 19:52:03 10° N 19:57:16 67° E 20:00:12 26° SSE
STARLINK-1125 3.7 19:54:31 10° WNW 19:58:33 66° SW 19:59:34 46° SSE
Cosmos 1943 3.5 20:01:04 38° SE 20:01:50 39° ESE 20:07:05 10° NE
Cosmos 1943 Rocket 2.2 19:57:21 10° NNW 20:02:50 60° ENE 20:04:35 41° ESE
STARLINK-1109 3.8 19:59:20 10° WNW 20:03:22 61° SW 20:04:12 48° S
Meteor 1-21 Rocket 4.1 19:58:00 10° N 20:03:35 72° E 20:06:08 33° SSE
STARLINK-1123 4.4 20:00:03 10° NW 20:03:56 37° NNE 20:04:30 35° NE
Meteor 2-10 4.1 20:00:44 22° SSE 20:04:08 59° E 20:09:33 10° NNE
Resurs 1-3 3.5 20:05:32 46° SSE 20:06:48 81° ENE 20:11:12 10° N
STARLINK-1091 3.9 20:04:10 10° WNW 20:08:10 55° SW 20:08:50 48° S
STARLINK-1097 4.3 20:04:59 10° NW 20:08:55 40° NNE 20:09:16 39° NE
Cosmos 1626 4.2 20:07:09 10° NNW 20:10:18 26° W 20:13:26 10° SSW
ATLAS 2AS CENTAUR R/B 4.0 20:05:13 10° NNW 20:11:39 28° NE 20:14:21 23° ENE
H-2A R/B 3.5 20:08:36 10° SSW 20:13:28 36° W 20:18:16 10° NNW
STARLINK-1099 4.2 20:09:58 10° NW 20:13:56 43° NNE 20:14:04 42° NE
SL-08 RB Rocket 4.5 20:12:30 18° S 20:15:37 50° W 20:20:04 10° NNW
Aureole 3 4.0 20:12:25 14° SSW 20:15:43 62° W 20:20:37 10° N
Resurs 01 Rocket 1.4 20:16:28 69° ESE 20:16:43 71° ENE 20:21:07 10° N
USA 234 3.5 20:10:54 10° NE 20:17:22 67° NW 20:23:50 10° WSW
STARLINK-1072 4.2 20:14:19 10° WNW 20:18:09 43° SW 20:18:25 43° SSW
Cosmos 2154 Rocket 4.3 20:12:05 10° N 20:18:11 46° ENE 20:19:00 44° E
STARLINK-1104 4.2 20:14:55 10° NW 20:18:51 46° NNE 20:18:51 46° NNE
SL-16 R/B 3.9 20:14:20 10° WSW 20:19:27 34° WNW 20:24:35 10° N
DMSP B5D2-2 4.1 20:15:20 10° N 20:20:33 78° WNW 20:25:46 10° SSW
Cosmos 2228 4.1 20:22:40 32° NNE 20:22:40 32° NNE 20:25:08 10° NNE
Cosmos 967 Rocket 4.4 20:15:19 10° SSW 20:21:41 70° ESE 20:28:08 10° NE
Abrixas rocket 3.9 20:18:56 10° W 20:20:46 30° WNW 20:20:46 30° WNW
STARLINK-1096 4.4 20:18:40 10° WNW 20:22:27 40° SW 20:22:34 40° SW
STARLINK-1144 4.2 20:19:53 10° NW 20:23:38 48° NNE 20:23:38 48° NNE
Cosmos 1953 2.9 20:23:07 29° SW 20:24:52 54° W 20:28:47 10° N
STARLINK-1103 4.2 20:24:50 10° NW 20:28:25 50° N 20:28:25 50° N
Nadezhda 1 Rocket 3.9 20:29:47 47° SSE 20:31:38 69° E 20:37:59 10° NNE
Cosmos 1992 Rocket 3.8 20:27:23 10° NNW 20:32:38 90° SE 20:33:07 74° SSE
STARLINK-1101 4.3 20:29:48 10° NW 20:33:11 49° N 20:33:11 49° N
ISS -1.6 20:33:55 10° NW 20:35:39 24° NNW 20:35:39 24° NNW
STARLINK-1102 4.4 20:34:45 10° NW 20:37:58 48° NNW 20:37:58 48° NNW
MetOp-B 4.0 20:40:10 73° ENE 20:40:10 73° ENE 20:45:29 10° N
Cosmos 1603 3.7 20:35:21 10° SSW 20:41:00 77° WNW 20:46:39 10° NNE
Cosmos 2251 Rocket 4.2 20:36:42 10° SW 20:41:56 55° WNW 20:47:14 10° N
Meteor 1-16 Rocket 4.2 20:40:19 39° SSW 20:42:18 74° W 20:47:45 10° N
Cosmos 2084 Rocket 4.0 20:39:46 10° NW 20:43:30 60° NW 20:43:30 60° NW
ERS-1 Rocket 4.3 20:48:37 28° NNE 20:48:37 28° NNE 20:51:31 10° N
Cosmos 2074 Rocket 4.3 20:44:27 10° NNW 20:50:39 62° W 20:53:01 38° SSW
CZ-2C R/B 3.4 20:46:22 10° N 20:51:20 48° WNW 20:55:39 14° SW
Aureole 1 Rocket 4.3 21:01:50 70° SE 21:02:29 74° ESE 21:09:21 10° NNE
Cosmos 1656 Rocket 4.1 20:57:24 10° NNW 21:02:03 56° NNE 21:02:03 56° NNE
Cosmos 1610 Rocket 4.5 20:58:48 10° N 21:05:01 74° W 21:05:25 71° SW
Meteor 1-11 4.4 20:59:20 10° N 21:04:29 71° N 21:04:29 71° N
COSMOS 2455 4.2 21:10:58 10° NNW 21:15:09 28° NNE 21:15:09 28° NNE
Cosmos 2341 Rocket 4.3 21:17:30 10° N 21:22:44 62° N 21:22:44 62° N
Cosmos 2369 Rocket 3.3 21:20:05 10° NW 21:25:03 38° W 21:25:03 38° W
Terra 3.9 21:32:45 21° N 21:32:45 21° N 21:34:22 10° N
NOSS 3-4 (A) 4.1 21:23:46 10° NNW 21:30:09 60° NNE 21:30:09 60° NNE
NOSS 3-4 (C) 4.1 21:23:52 10° NNW 21:30:14 60° NNE 21:30:14 60° NNE
Cosmos 1943 Rocket 4.3 21:42:21 10° WNW 21:46:02 18° W 21:46:08 18° W
ATLAS 2AS CENTAUR R/B 3.3 21:55:59 10° NW 22:01:48 56° NW 22:01:48 56° NW
